STARLINK-33975, 63802

Orbit data source: Space-Track

STARLINK-33975, 63802 is a payload satellite owned by SpaceX/Seattle (US) in LEO that was launched on Fri, 02 May 2025 UTC via an FALCON 9 launch vehicle from the Air Force Eastern Test Range (AFETR). Payload-class satellites include a variety of spacecraft equipped with specific instruments for various scientific and technological missions. These include communications satellites like Starlink; space stations such as the ISS; scientific satellites like the Hubble; Earth observation satellites from companies like Planet Labs, Umbra, and HawkEye 360; GPS; miniature CubeSats for education and research; and military/defense satellites.

Loading next visibility...
Identifier
63802, 2025-091AC
Orbit
LEO
Country
Flag of USUS
Related business
Manufacturer
SpaceX/Seattle
Mission
Operational Commercial Communications
Bus & Motor
STARLINK V2MO, Unknown motor
Mass
575 kg wet, ~530 kg dry
Launch date (UTC)
2025-05-02 (1 year ago)
Launch vehicle
FALCON 9
Launch site
Air Force Eastern Test Range (AFETR)
Object type
Payload
Rocket body
Debris
Shape & HBR
Box + 2 Pan, 17.7 m
Radar Cross Section
36.964 m², Large (>1 m²)

Expand to show TLE details & history
Last TLE update: 17 hours ago

TLE from 17 hours ago
0 STARLINK-33975
1 63802U 25091AC  26171.13661859  .00009609  00000-0  35819-3 0  9995
2 63802  42.9990 193.6495 0001272 250.4199 109.6516 15.27587136 64680
Epoch: 2026-06-20T03:16Z
TLE epoch observation values (Epoch: 2026-06-20T03:16:43.846Z)
Latitude
0.00004°
Longitude
-123.88872°
Altitude
483.097 km
Speed
7.626 km/s
True Right ascension
12h 54m 35s
True Declination
0° 00' 00"
Sunlit
Object was in daylight at epoch
Visualization orbit readout
Latitude
Unknown
Longitude
Unknown
Altitude
Unknown
Speed
Unknown
Apparent Right ascension
Unknown
Apparent Declination
Unknown
Sunlit
N/A
Visualization observer readout
Local Sidereal Time
07:12:01
Azimuth
Unknown
Elevation
Unknown
Doppler factor
Unknown
Orbital elements
Apogee altitude
485.846 km
Perigee altitude
484.1 km
Semi-major axis
6,863.11 km
Eccentricity
0.00013
Inclination
42.999°
RAAN
193.6495°
Arg. of periapsis
250.4199°
True anomaly
109.66533°
Mean anomaly
109.6516°
Eccentric anomaly
109.65846°
Mean motion
3.81735 °/min
Orbital period
94.31 mins
BSTAR
0.00035819
Loading maneuver chart data...
Computing Atmospheric mass density...
Loading historical data...
Loading historical data...
Loading historical data...
Loading historical data...
Loading historical data...
Loading historical data...
Loading historical data...

Documentation

Showing up to 5 results
|